This is the latest recevied weather packets stored in our database for station/object KN4MGS. If no packets are shown the sender has not sent any weather packets the latest 10 day(s).
| Time | Temp. | Humidity | Pressure | Rain* | Wind** | Luminosity | Snow |
|---|---|---|---|---|---|---|---|
| 1778002431 | 26.11° C | 45% | 1020.1 hPa | 0 mm | - | 658 W/m² | - |
| 1778002128 | 25° C | 43% | 1019.7 hPa | 0 mm | - | 524 W/m² | - |
| 1778001826 | 26.11° C | 41% | 1019.7 hPa | 0 mm | - | 394 W/m² | - |
| 1778001525 | 26.11° C | 39% | 1019.7 hPa | 0 mm | - | 796 W/m² | - |
| 1778001223 | 26.11° C | 43% | 1020 hPa | 0 mm | - | 684 W/m² | - |
| 1778000919 | 25.56° C | 43% | 1019.9 hPa | 0 mm | - | 749 W/m² | - |
| 1778000616 | 26.11° C | 44% | 1020 hPa | 0 mm | - | 646 W/m² | - |
| 1778000311 | 26.11° C | 47% | 1020.1 hPa | 0 mm | - | 746 W/m² | - |
| 1778000007 | 26.11° C | 44% | 1019.9 hPa | 0 mm | - | 772 W/m² | - |
| 1777999703 | 26.11° C | 44% | 1019.9 hPa | 0 mm | - | 766 W/m² | - |
| 1777999400 | 25.56° C | 48% | 1019.7 hPa | 0 mm | - | 716 W/m² | - |
| 1777999098 | 25° C | 48% | 1019.9 hPa | 0 mm | - | 745 W/m² | - |
| 1777998797 | 25° C | 47% | 1020.1 hPa | 0 mm | - | 741 W/m² | - |
| 1777998495 | 25.56° C | 49% | 1020.4 hPa | 0 mm | - | 456 W/m² | - |
| 1777998190 | 25.56° C | 49% | 1020.3 hPa | 0 mm | - | 691 W/m² | - |
| 1777997888 | 25° C | 50% | 1020.4 hPa | 0 mm | - | 659 W/m² | - |
| 1777997585 | 24.44° C | 53% | 1020.6 hPa | 0 mm | - | 638 W/m² | - |
| 1777997282 | 24.44° C | 53% | 1020.6 hPa | 0 mm | - | 695 W/m² | - |
| 1777996980 | 23.89° C | 53% | 1020.6 hPa | 0 mm | - | 652 W/m² | - |
| 1777996676 | 24.44° C | 55% | 1020.7 hPa | 0 mm | - | 653 W/m² | - |
| 1777996372 | 24.44° C | 54% | 1020.7 hPa | 0 mm | - | 719 W/m² | - |
| 1777996069 | 23.89° C | 57% | 1020.9 hPa | 0 mm | - | 677 W/m² | - |
| 1777995765 | 23.89° C | 55% | 1020.9 hPa | 0 mm | - | 666 W/m² | - |
| 1777995462 | 24.44° C | 56% | 1020.7 hPa | 0 mm | - | 659 W/m² | - |
| 1777995159 | 23.89° C | 58% | 1020.7 hPa | 0 mm | - | 718 W/m² | - |
* Rain latest hour (hover to see other rain measurements)
** Current wind speed in m/s (hover to see current wind gust speed)